{"data":{"norad_id":60350,"epoch":"2026-09-21T22:24:44.036064Z","epoch_age_seconds":61747,"freshness":"FRESH","line1":"1 60350U 24136X   26264.93384301 -.00000624  00000+0 -83486-5 0  9998","line2":"2 60350  53.1589 242.4806 0001445  83.1710 276.9456 15.31701733119738","mean_motion":15.31701733,"eccentricity":0.0001445,"inclination_deg":53.1589,"raan_deg":242.4806,"arg_perigee_deg":83.171,"mean_anomaly_deg":276.9456,"bstar":-8.3486e-6,"rev_number":11973,"period_min":94.013081592564,"perigee_km":469.74516726837,"apogee_km":471.72449122702,"semimajor_km":6848.8718292477,"source":"CELESTRAK","updated_at":"2026-09-22T09:00:49.223110Z"}}